This is the latest recevied weather packets stored in our database for station/object HP1CDW-10. If no packets are shown the sender has not sent any weather packets the latest 10 day(s).
| Time | Temp. | Humidity | Pressure | Rain* | Wind** | Luminosity | Snow |
|---|---|---|---|---|---|---|---|
| 1788021676 | 35° C | 52% | 1003.5 hPa | - | - | - | - |
| 1788021071 | 35.56° C | 50% | 1003.5 hPa | - | - | - | - |
| 1788020466 | 35.56° C | 50% | 1003.5 hPa | - | - | - | - |
| 1788019257 | 34.44° C | 53% | 1003.8 hPa | - | - | - | - |
| 1788018652 | 34.44° C | 53% | 1003.8 hPa | - | - | - | - |
| 1788018047 | 34.44° C | 54% | 1004 hPa | - | - | - | - |
| 1788017443 | 35° C | 53% | 1003.9 hPa | - | - | - | - |
| 1788016838 | 34.44° C | 54% | 1003.7 hPa | - | - | - | - |
| 1788016233 | 33.89° C | 55% | 1003.5 hPa | - | - | - | - |
| 1788015628 | 34.44° C | 54% | 1003.6 hPa | - | - | - | - |
| 1788014419 | 35° C | 52% | 1003.4 hPa | - | - | - | - |
| 1788013814 | 34.44° C | 52% | 1003.3 hPa | - | - | - | - |
| 1788013209 | 35° C | 50% | 1003.1 hPa | - | - | - | - |
| 1788012604 | 35° C | 51% | 1003.1 hPa | - | - | - | - |
| 1788011999 | 34.44° C | 52% | 1003.2 hPa | - | - | - | - |
| 1788011395 | 34.44° C | 52% | 1003 hPa | - | - | - | - |
| 1788010790 | 34.44° C | 52% | 1003.2 hPa | - | - | - | - |
| 1788010185 | 34.44° C | 52% | 1003.3 hPa | - | - | - | - |
| 1788009580 | 34.44° C | 52% | 1003.2 hPa | - | - | - | - |
| 1788008976 | 34.44° C | 52% | 1003.1 hPa | - | - | - | - |
| 1788008371 | 34.44° C | 52% | 1002.8 hPa | - | - | - | - |
| 1788007773 | 33.89° C | 52% | 1002.7 hPa | - | - | - | - |
| 1788007161 | 33.89° C | 53% | 1002.5 hPa | - | - | - | - |
| 1788006556 | 33.89° C | 53% | 1002.6 hPa | - | - | - | - |
| 1788005953 | 33.89° C | 53% | 1002.4 hPa | - | - | - | - |
* Rain since midnight (hover to see other rain measurements)
** Current wind speed in m/s (hover to see current wind gust speed)